Temperature
34 33 32 32 33 33 33 32 32 33 34 33 32 31 31 31 30 29 28 27 26 25 24 23 23 22 21 20 20 20 19 19 19 18 18 18 18 18 18 17 17 17 17 17
33 33 34 34 34 33 33 33 33 33 34 33 31 30 31 31 30 29 28 27 26 25 24 23 23 22 21 20 20 19 19 19 19 18 18 18 18 18 18 17 17 17 17 17
32 33 34 34 34 34 33 33 33 33 33 33 31 29 29 30 30 29 29 28 27 26 24 24 23 22 21 21 20 20 19 19 19 19 18 18 18 18 18 17 17 17 17 17
33 34 34 34 34 34 33 34 34 33 32 31 30 28 29 29 30 30 29 28 27 26 25 24 23 22 22 21 20 20 19 19 19 19 18 18 18 18 18 17 17 17 17 17
33 34 34 34 34 34 34 35 34 33 32 31 30 28 28 29 29 29 30 29 28 27 26 25 24 23 22 21 20 20 19 19 19 18 18 18 18 17 17 17 17 17 17 17
34 35 35 35 35 35 35 34 33 32 31 29 29 29 28 29 29 29 30 29 28 27 26 25 24 23 22 21 21 20 19 19 19 18 18 18 18 17 17 17 17 17 17 17
33 34 35 35 34 34 34 33 31 29 29 29 30 29 28 30 31 30 30 29 28 27 26 25 24 23 22 21 21 20 19 19 18 18 18 18 18 17 17 17 17 17 17 17
31 32 34 34 34 33 34 33 31 29 30 30 30 29 29 30 31 31 30 29 28 27 26 25 24 23 22 22 21 20 19 19 18 18 18 18 18 17 17 17 17 17 17 17
32 32 34 35 35 34 33 33 34 32 32 30 29 29 29 31 30 30 30 29 28 27 26 25 24 23 22 22 21 20 19 19 18 18 18 18 18 18 17 17 17 17 17 17
33 32 34 35 35 35 34 34 33 31 29 28 28 28 28 29 29 30 30 29 28 27 26 25 24 23 23 22 21 20 19 19 18 18 18 18 18 18 17 17 17 17 16 16
33 32 32 33 33 33 33 33 32 31 31 29 28 28 30 30 30 29 30 29 28 27 26 25 24 23 22 22 21 20 19 19 18 18 18 18 17 17 17 17 17 17 16 16
33 32 31 32 33 34 33 33 33 31 30 31 30 29 31 31 31 30 30 29 28 27 26 25 24 23 23 22 20 19 19 19 18 18 18 17 17 17 17 17 17 16 16 16
33 32 30 30 31 32 32 33 33 33 32 31 30 29 31 31 30 30 29 28 27 27 26 25 24 23 22 21 21 20 19 19 18 18 18 17 17 17 17 17 17 16 16 16
32 31 31 30 30 30 30 31 32 32 31 30 30 29 30 30 29 29 29 28 27 26 25 25 24 23 22 21 20 20 19 19 19 18 18 17 17 17 17 17 17 16 16 16
33 31 31 32 32 31 31 31 32 31 31 31 31 30 30 30 29 29 28 27 27 26 25 24 23 22 22 21 20 20 19 19 19 18 18 17 17 17 17 17 16 16 16 15
32 31 31 30 31 31 31 31 32 31 32 31 31 30 31 30 29 28 28 27 26 26 25 24 23 22 22 21 20 20 19 19 18 18 18 17 17 17 17 16 16 16 16 15
31 30 29 29 30 30 30 31 31 31 31 31 30 30 30 29 28 27 27 27 26 25 24 23 23 22 21 21 20 19 19 18 18 18 17 17 17 17 16 16 16 16 15 15
30 29 29 29 29 28 30 32 32 31 31 31 30 30 30 29 27 27 26 26 26 25 24 23 22 22 21 20 20 19 19 18 18 17 17 17 17 16 16 16 16 15 15 15
31 29 29 28 28 28 30 31 31 30 29 30 30 30 29 28 27 26 26 26 25 24 23 23 22 22 21 20 20 19 18 18 18 17 17 17 16 16 16 16 15 15 15 15
31 30 28 28 27 27 29 31 31 30 28 29 29 29 28 27 26 26 25 25 24 23 23 22 22 21 20 20 19 18 18 18 17 17 17 16 16 16 16 15 15 15 15 14
29 28 28 27 27 28 29 31 31 28 27 27 27 27 27 26 26 25 25 24 23 23 22 22 21 20 20 19 19 18 18 17 17 17 16 16 16 16 16 15 15 15 14 14
28 27 26 27 27 27 29 30 28 26 26 27 26 26 26 25 25 24 24 23 22 22 22 21 20 20 19 19 18 18 17 17 16 16 16 16 16 15 15 15 15 15 14 14
28 27 27 27 26 27 27 27 26 26 26 25 25 25 25 25 24 24 23 22 22 22 21 20 20 19 19 18 18 17 17 16 16 16 16 15 15 15 15 15 15 15 14 14
27 27 27 26 26 27 26 26 25 25 25 25 25 24 24 24 24 23 22 22 21 21 20 20 19 19 18 18 17 17 16 16 16 15 15 15 15 15 15 15 14 14 14 14
26 26 26 25 26 26 25 25 24 24 24 24 24 24 23 23 23 22 22 21 21 20 20 19 19 19 18 17 17 16 16 16 15 15 15 15 15 15 15 15 14 14 14 14
25 25 25 25 25 25 24 24 24 23 23 23 23 23 23 22 22 21 21 20 20 19 19 19 18 18 18 17 16 16 16 15 15 15 15 15 15 15 15 15 14 14 14 14
Wind_Speed
12 10 8 5 6 8 7 4 2 1 3 4 4 7 8 9 9 10 10 9 9 9 10 10 9 9 9 8 6 5 4 3 2 1 1 1 1 1 1 2 2 2 2 2
11 10 8 6 7 9 7 6 4 1 1 2 3 2 5 8 8 9 9 9 9 9 9 9 9 9 9 8 7 6 4 3 2 1 1 1 1 1 2 2 2 2 2 1
13 8 7 9 10 8 6 6 6 4 3 3 1 3 4 6 8 9 9 11 11 10 10 10 9 8 9 9 7 6 4 3 2 2 1 1 2 1 2 2 2 2 1 1
11 9 9 9 8 8 5 5 7 8 5 3 2 2 5 7 8 9 9 9 11 11 11 11 10 9 9 9 8 7 6 4 3 2 1 1 2 1 1 1 2 2 1 1
11 10 10 10 7 7 7 7 8 9 6 6 2 1 3 7 7 7 8 8 9 10 11 10 9 9 8 8 8 8 6 5 4 3 2 0 1 1 1 1 2 1 1 1
14 11 10 9 7 8 8 9 8 7 6 6 4 3 2 5 7 7 7 8 8 9 10 10 10 9 7 7 7 8 6 5 4 3 3 2 0 1 2 1 1 0 1 1
14 13 10 8 9 8 9 7 5 6 5 5 4 1 3 2 6 8 8 9 9 8 9 10 10 9 8 8 7 7 6 5 5 4 3 3 2 1 1 1 1 1 1 1
12 11 10 9 9 8 9 8 6 7 7 3 1 1 4 5 5 7 9 9 9 9 9 10 10 9 8 8 8 8 6 5 4 4 3 2 1 1 1 1 1 1 1 2
10 10 11 11 10 10 9 8 10 10 9 6 1 3 5 5 5 8 9 9 9 8 8 9 10 9 8 8 8 8 7 5 4 4 4 3 2 1 1 1 1 1 1 1
11 10 9 8 9 10 9 9 7 6 5 7 2 1 3 5 6 6 7 8 9 9 9 9 9 8 8 8 7 7 6 5 5 4 4 3 3 2 1 0 1 1 2 2
11 12 11 8 9 9 9 9 6 5 6 6 4 1 3 5 6 6 7 8 9 8 8 8 9 8 8 7 7 6 6 4 4 4 3 3 3 2 1 1 1 0 1 1
10 10 9 9 8 9 10 9 8 7 6 7 6 0 3 3 6 5 6 8 8 8 8 8 8 8 8 8 7 5 6 6 4 4 4 3 2 2 1 1 1 1 1 1
7 9 10 9 8 7 8 9 10 10 7 6 6 1 3 3 4 4 5 8 8 6 7 7 7 8 7 6 6 5 5 5 5 5 4 3 2 2 1 1 1 1 0 0
6 11 11 11 8 6 8 10 9 8 7 6 3 4 4 4 4 4 7 9 8 7 6 7 6 6 6 6 5 5 3 4 5 4 4 3 3 2 1 1 1 1 1 1
8 11 13 12 9 8 10 10 9 8 8 8 4 3 4 5 4 5 7 8 6 6 6 7 7 6 7 6 5 4 3 2 3 4 3 3 3 2 1 1 1 0 1 1
8 10 11 11 10 10 11 11 10 8 7 7 4 2 3 6 5 4 6 7 6 6 6 7 6 6 6 6 5 4 4 3 3 3 3 3 3 2 2 1 1 0 1 1
9 9 11 12 10 11 12 10 8 7 5 6 4 1 4 6 6 5 4 6 6 6 7 6 5 5 5 5 5 5 4 4 4 3 3 2 3 2 2 2 2 1 1 1
9 8 8 11 11 13 9 6 6 5 3 3 1 2 3 6 6 5 5 5 6 7 7 5 5 5 5 5 5 5 4 4 4 3 2 2 2 2 2 2 2 2 2 1
9 7 9 9 11 12 8 7 5 3 2 2 2 1 3 5 5 5 3 6 7 7 6 5 4 4 4 4 5 5 4 4 3 3 2 2 1 2 2 2 2 2 2 2
11 7 9 10 12 12 7 5 3 2 3 1 2 2 3 4 2 3 5 6 6 7 6 4 4 5 5 4 4 4 4 3 2 2 2 2 2 1 2 2 2 2 1 2
11 10 12 13 13 10 5 4 4 5 1 4 4 3 2 3 2 3 6 6 4 6 6 6 5 5 4 4 4 3 2 2 1 1 2 2 2 2 2 2 2 2 2 2
11 9 10 11 13 8 2 2 1 4 5 4 3 3 4 4 3 3 6 6 5 6 5 5 5 5 4 4 3 2 2 2 2 1 1 2 1 2 1 2 2 2 2 3
8 7 5 4 3 2 5 5 6 5 5 4 3 3 3 3 2 5 6 5 4 5 4 4 5 5 4 3 3 2 2 2 2 1 1 1 2 1 2 3 3 3 3 3
5 4 4 1 2 2 5 7 6 5 4 3 2 2 1 1 3 5 4 4 4 4 3 3 4 4 3 3 2 2 3 2 1 1 1 2 2 3 3 3 3 3 3 3
5 3 2 3 1 1 4 5 5 4 3 2 2 1 0 1 3 4 4 3 3 3 3 3 3 3 3 3 3 2 2 2 1 1 2 2 3 3 2 2 2 2 1 1
6 4 4 3 1 1 2 3 3 3 3 3 2 1 2 2 3 3 4 4 3 3 3 2 2 2 3 3 2 2 2 2 1 1 2 2 2 2 3 3 2 1 2 3
Wind_Direction
244 245 259 277 291 288 292 281 293 107 168 182 146 156 159 163 162 159 163 158 154 152 150 148 150 145 134 129 124 118 119 112 105 89 109 117 91 56 58 75 82 92 54 48
253 247 260 274 269 270 284 299 299 267 113 247 135 132 154 161 167 160 158 153 156 154 150 151 155 152 147 141 140 136 131 128 141 125 125 123 89 107 95 67 81 79 61 13
246 254 257 266 272 277 280 293 300 287 221 231 173 159 195 172 163 162 167 162 162 162 156 158 161 161 155 150 150 151 150 142 151 147 148 106 93 34 54 78 90 86 69 60
249 250 260 259 263 284 288 297 289 288 284 268 218 228 210 182 171 170 169 167 164 164 160 162 163 165 162 159 155 149 151 151 148 150 128 137 119 93 78 74 89 102 85 32
251 248 252 263 269 288 292 290 289 294 300 294 231 234 216 176 172 171 163 164 160 160 158 156 158 159 159 158 157 152 150 153 154 159 151 154 97 117 93 91 91 99 111 62
257 255 255 265 272 275 278 276 284 290 282 276 256 232 201 177 165 160 159 153 153 150 145 146 146 148 150 149 150 147 145 154 156 159 157 144 78 47 49 47 59 243 134 95
248 249 251 258 262 255 270 282 286 294 270 260 229 189 115 139 143 148 152 145 146 146 146 148 147 152 152 148 144 137 144 152 159 164 170 163 188 194 198 273 240 257 21 76
243 246 240 244 256 264 262 276 280 285 290 287 338 101 125 135 135 137 136 140 142 144 149 151 150 152 154 149 142 139 142 146 156 158 165 156 184 229 229 257 301 359 11 34
247 244 230 226 241 257 273 278 288 292 305 314 306 133 124 123 133 127 126 137 138 144 151 152 151 153 152 146 143 144 143 146 149 155 156 156 170 207 286 283 276 7 7 25
255 268 255 234 234 239 257 278 295 306 312 297 307 218 165 151 145 132 145 147 142 153 154 147 148 151 150 148 142 140 143 147 148 153 168 156 167 183 201 343 23 8 25 26
249 262 264 252 244 256 251 255 267 285 291 292 289 238 137 149 150 158 167 153 147 151 148 146 147 145 140 140 144 148 144 147 154 151 144 128 147 164 180 140 113 54 22 17
244 261 265 257 260 276 274 267 263 267 271 281 288 163 108 152 158 169 164 141 138 140 142 143 145 139 141 145 146 154 156 160 159 148 148 151 157 160 157 132 131 121 63 27
257 257 258 259 256 259 262 271 280 286 279 279 281 175 125 120 120 127 131 123 124 131 133 134 139 140 141 143 145 159 169 162 160 161 161 155 164 158 146 115 118 124 97 55
252 254 257 263 255 248 257 264 269 276 280 281 253 172 151 117 125 140 126 123 136 144 137 133 131 131 135 133 134 138 164 163 162 159 155 155 166 166 158 136 130 106 87 61
244 253 260 267 260 255 260 265 263 258 268 278 277 205 168 143 134 125 122 129 134 135 135 128 129 135 135 135 135 137 149 142 139 144 146 147 146 133 144 149 136 68 357 28
239 262 269 267 266 259 259 258 260 259 264 266 262 262 128 118 112 115 129 134 129 126 120 123 133 132 139 143 146 147 144 133 129 141 143 139 142 149 163 166 176 129 67 51
236 247 265 269 262 261 258 255 255 264 283 284 280 182 130 127 126 139 140 142 140 134 126 128 130 136 143 146 146 151 152 148 154 159 151 156 160 165 174 195 161 150 150 161
243 252 259 266 266 261 268 272 264 256 289 314 285 155 129 126 116 122 139 141 130 122 121 121 134 138 140 145 152 152 155 151 158 156 159 175 184 178 184 185 179 178 179 190
235 238 253 262 260 256 254 256 252 237 262 286 263 185 121 123 126 115 129 123 124 123 123 130 138 139 135 145 145 147 158 152 156 161 167 169 181 193 205 198 195 200 191 194
234 227 242 253 261 261 254 258 266 250 231 59 58 62 92 110 138 126 122 105 115 120 122 119 117 118 120 123 130 143 156 161 172 174 167 161 165 191 213 201 197 203 205 227
226 229 237 249 255 258 272 268 248 247 166 64 56 50 80 82 85 124 121 107 107 110 119 113 108 110 112 113 122 145 140 134 128 143 148 146 168 203 188 166 171 198 218 235
235 234 236 246 254 250 342 281 309 75 69 64 65 55 63 64 86 104 110 114 123 112 112 113 105 105 104 107 118 125 108 97 87 93 122 136 168 229 164 146 182 214 224 233
242 246 238 236 246 75 75 79 85 85 74 52 41 60 67 85 118 116 117 121 120 114 114 116 117 112 106 115 134 135 116 107 97 101 127 169 196 216 176 195 203 215 219 232
250 255 251 231 160 115 84 80 71 69 68 54 53 55 82 152 142 132 131 121 123 116 128 137 128 130 130 136 137 127 121 120 130 165 195 202 207 212 206 218 217 224 228 236
292 291 278 260 255 141 110 88 74 55 55 47 78 77 45 127 119 124 119 116 122 129 135 127 130 137 135 130 126 123 127 138 167 199 220 224 223 220 213 211 239 245 248 236
284 282 259 246 190 210 95 80 106 92 61 31 40 56 58 75 112 121 119 111 107 110 107 109 115 126 133 136 133 127 135 144 178 229 242 244 240 231 231 216 222 176 165 143
Height
1474 1476 1478 1474 1471 1470 1469 1472 1474 1470 1464 1468 1474 1479 1480 1483 1486 1490 1494 1498 1502 1505 1508 1510 1512 1514 1515 1516 1517 1518 1518 1519 1519 1519 1519 1520 1520 1520 1519 1518 1518 1517 1517 1517
1475 1476 1469 1466 1465 1466 1467 1471 1472 1466 1463 1467 1475 1480 1478 1480 1484 1488 1492 1496 1500 1504 1507 1509 1511 1513 1514 1515 1516 1517 1518 1518 1518 1519 1519 1520 1520 1520 1519 1519 1518 1517 1517 1517
1475 1470 1465 1466 1465 1466 1467 1469 1469 1469 1465 1466 1475 1488 1482 1481 1482 1486 1490 1493 1497 1501 1504 1507 1510 1512 1513 1514 1515 1516 1517 1517 1518 1518 1519 1519 1519 1519 1519 1519 1518 1518 1517 1517
1468 1464 1463 1464 1466 1465 1471 1461 1462 1464 1471 1479 1481 1501 1488 1481 1483 1484 1487 1490 1494 1498 1502 1505 1507 1510 1511 1513 1514 1515 1516 1516 1517 1518 1518 1519 1519 1519 1519 1519 1519 1518 1517 1517
1467 1462 1463 1465 1463 1461 1464 1458 1461 1464 1471 1479 1482 1496 1494 1482 1485 1483 1484 1487 1492 1496 1500 1503 1505 1508 1510 1512 1513 1514 1515 1516 1516 1517 1517 1518 1518 1519 1519 1519 1519 1518 1518 1517
1461 1458 1458 1459 1457 1458 1457 1459 1462 1465 1474 1495 1485 1492 1497 1481 1480 1480 1483 1486 1490 1494 1498 1501 1504 1507 1509 1511 1513 1513 1514 1515 1515 1516 1516 1517 1517 1518 1518 1518 1518 1518 1518 1517
1468 1460 1456 1457 1460 1459 1458 1470 1489 1497 1498 1495 1477 1485 1490 1476 1473 1476 1481 1485 1489 1493 1497 1500 1503 1505 1508 1510 1511 1512 1513 1514 1514 1515 1515 1516 1517 1517 1517 1518 1518 1518 1518 1517
1477 1475 1460 1456 1460 1463 1460 1466 1488 1504 1498 1487 1481 1489 1483 1472 1474 1476 1480 1484 1488 1492 1495 1499 1502 1504 1507 1509 1510 1511 1512 1512 1513 1514 1514 1515 1516 1516 1517 1517 1517 1517 1517 1517
1471 1472 1454 1452 1454 1456 1462 1464 1459 1472 1477 1489 1490 1485 1479 1473 1476 1477 1480 1484 1487 1492 1495 1497 1500 1503 1505 1507 1509 1510 1511 1511 1512 1512 1513 1514 1514 1515 1516 1516 1516 1516 1516 1516
1458 1468 1455 1449 1452 1453 1455 1458 1464 1477 1497 1505 1497 1494 1488 1480 1478 1477 1480 1483 1487 1491 1494 1497 1499 1502 1504 1506 1508 1510 1510 1511 1511 1512 1512 1513 1513 1514 1514 1515 1515 1515 1515 1514
1453 1466 1462 1455 1460 1461 1458 1460 1464 1471 1476 1493 1504 1499 1472 1474 1474 1477 1479 1481 1485 1489 1492 1495 1498 1501 1503 1505 1508 1509 1510 1511 1511 1512 1512 1512 1513 1513 1513 1513 1513 1513 1513 1513
1452 1459 1468 1461 1453 1451 1454 1457 1461 1477 1480 1477 1485 1490 1465 1468 1471 1475 1476 1480 1484 1488 1491 1494 1497 1500 1502 1505 1506 1508 1508 1510 1511 1511 1512 1512 1512 1513 1513 1513 1512 1512 1512 1511
1453 1462 1477 1476 1468 1460 1459 1456 1456 1459 1466 1476 1486 1488 1465 1467 1470 1473 1476 1480 1485 1488 1491 1494 1497 1498 1502 1504 1505 1507 1508 1509 1510 1510 1511 1511 1511 1512 1512 1512 1511 1511 1511 1511
1455 1460 1470 1480 1473 1464 1466 1461 1457 1462 1472 1475 1475 1477 1469 1468 1472 1474 1476 1480 1485 1489 1491 1493 1496 1498 1501 1503 1505 1506 1507 1508 1509 1509 1510 1510 1510 1511 1511 1511 1511 1510 1510 1510
1452 1460 1460 1457 1455 1456 1460 1460 1457 1461 1465 1470 1469 1469 1467 1468 1471 1474 1477 1481 1485 1488 1491 1493 1496 1498 1499 1502 1503 1504 1506 1507 1507 1508 1509 1509 1510 1510 1510 1510 1510 1509 1509 1509
1452 1459 1460 1462 1457 1457 1459 1457 1456 1457 1458 1460 1463 1466 1462 1466 1470 1474 1477 1480 1484 1488 1491 1494 1496 1498 1499 1501 1502 1503 1505 1506 1507 1507 1508 1508 1508 1508 1508 1508 1508 1508 1508 1507
1453 1459 1466 1468 1460 1461 1467 1456 1456 1456 1455 1459 1464 1465 1463 1468 1472 1476 1479 1481 1484 1487 1491 1493 1495 1497 1498 1499 1500 1502 1504 1505 1505 1506 1506 1506 1506 1506 1506 1507 1506 1506 1506 1506
1455 1460 1464 1467 1469 1484 1461 1446 1448 1453 1455 1456 1460 1462 1464 1468 1472 1475 1478 1481 1484 1487 1491 1493 1495 1496 1497 1498 1499 1501 1503 1503 1504 1504 1504 1504 1505 1505 1505 1505 1504 1504 1504 1504
1449 1457 1465 1469 1475 1471 1457 1449 1449 1455 1461 1458 1461 1462 1464 1468 1472 1476 1479 1481 1483 1486 1490 1492 1494 1495 1496 1497 1498 1499 1501 1501 1502 1502 1502 1503 1503 1503 1503 1503 1502 1503 1503 1503
1447 1452 1464 1468 1477 1478 1461 1448 1448 1454 1465 1460 1461 1464 1466 1467 1473 1478 1479 1482 1483 1486 1489 1491 1493 1494 1495 1497 1497 1498 1499 1500 1500 1501 1501 1501 1501 1501 1501 1501 1501 1501 1501 1502
1454 1457 1463 1467 1471 1463 1452 1449 1450 1467 1471 1464 1465 1467 1469 1471 1475 1477 1479 1481 1483 1486 1488 1490 1492 1493 1494 1495 1496 1497 1498 1499 1499 1499 1499 1499 1499 1499 1499 1499 1499 1500 1500 1500
1454 1460 1464 1465 1471 1469 1452 1451 1458 1465 1464 1465 1467 1470 1472 1473 1476 1477 1479 1481 1484 1485 1488 1490 1491 1492 1493 1494 1495 1496 1497 1497 1498 1497 1497 1497 1497 1497 1498 1497 1497 1497 1498 1498
1448 1452 1453 1459 1463 1457 1456 1458 1461 1463 1466 1468 1470 1472 1473 1475 1477 1478 1481 1483 1485 1486 1488 1490 1491 1492 1492 1493 1494 1494 1495 1495 1496 1496 1496 1495 1495 1495 1495 1495 1495 1495 1496 1496
1447 1448 1450 1455 1457 1457 1458 1461 1463 1465 1467 1469 1470 1471 1473 1475 1477 1479 1481 1483 1485 1486 1489 1489 1490 1491 1492 1492 1493 1493 1493 1493 1494 1494 1494 1494 1494 1494 1494 1494 1494 1494 1494 1494
1451 1450 1452 1456 1457 1458 1461 1463 1465 1467 1468 1469 1471 1473 1474 1475 1476 1478 1480 1482 1484 1486 1487 1489 1489 1490 1491 1491 1491 1492 1492 1492 1492 1492 1492 1492 1492 1492 1492 1492 1492 1492 1492 1492
1453 1453 1456 1459 1459 1460 1463 1465 1466 1468 1469 1471 1472 1473 1474 1475 1476 1478 1480 1482 1484 1485 1486 1487 1488 1489 1489 1489 1490 1491 1491 1490 1490 1490 1491 1491 1491 1491 1490 1490 1490 1490 1490 1489